FALCON 9 DEB, 52893

Orbit data source: Space-Track

FALCON 9 DEB, 52893 is space debris in LEO originally from a launch on Sun, 19 Jun 2022 UTC launched from the Air Force Eastern Test Range (AFETR). Debris objects in space refer to the collection of defunct objects orbiting the Earth. Examples of debris include non-operational satellites, rocket bodies, and fragments generated from explosions, collisions, or faulty payload assembly.

Loading next visibility...
Identifier
52893, 2022-064F
Orbit
LEO
Country
Flag of USUS
Related business
Manufacturer
SpaceX/Seattle
Mission
Spacecraft
Bus & Motor
Unknown
Mass
~50 kg wet, ~50 kg dry
Launch date (UTC)
2022-06-19 (3 years ago)
Launch vehicle
Unknown
Launch site
Air Force Eastern Test Range (AFETR)
Object type
Payload
Rocket body
Debris
Shape & HBR
Cyl, 3.5 m
Radar Cross Section
0.110 m², Medium (>0.1 m² and < 1m²)

Expand to show TLE details & history
Last TLE update: 12 hours ago

TLE from 12 hours ago
0 FALCON 9 DEB
1 52893U 22064F   25243.20961453  .00008795  00000-0  29232-3 0  9997
2 52893  52.9910 250.9548 0007094 337.4916  22.5772 15.31966702135207
Epoch: 2025-08-31T05:01Z
TLE epoch observation values (Epoch: 2025-08-31T05:01:50.695Z)
Latitude
0.00005°
Longitude
-164.13923°
Altitude
466.342 km
Speed
7.637 km/s
True Right ascension
16h 43m 49s
True Declination
0° 00' 00"
Sunlit
Object was in daylight at epoch
Visualization orbit readout
Latitude
Unknown
Longitude
Unknown
Altitude
Unknown
Speed
Unknown
Apparent Right ascension
Unknown
Apparent Declination
Unknown
Sunlit
N/A
Visualization observer readout
Local Sidereal Time
08:58:58
Azimuth
Unknown
Elevation
Unknown
Doppler factor
Unknown
Orbital elements
Apogee altitude
475.087 km
Perigee altitude
465.371 km
Semi-major axis
6,848.366 km
Eccentricity
0.00071
Inclination
52.991°
RAAN
250.9548°
Arg. of periapsis
337.4916°
True anomaly
22.60844°
Mean anomaly
22.5772°
Eccentric anomaly
22.59282°
Mean motion
3.82968 °/min
Orbital period
94 mins
BSTAR
0.00029232
Loading maneuver chart data...
Computing Atmospheric mass density...
Loading historical data...
Loading historical data...
Loading historical data...
Loading historical data...
Loading historical data...
Loading historical data...
Loading historical data...
Other satellites on launch #64 in the year 2022 (2022-06-19 UTC)

Documentation

Showing up to 5 results
|